Weather History for Monticello, KY

Change the Weather History Date:

Monday, January 21, 2013

  Actual Average Record
Temperature  
Mean Temperature 26 °F -  
Max Temperature 36 °F 45 °F 71 °F (1959)
Min Temperature 16 °F 25 °F -15 °F (1984)
Degree Days  
Heating Degree Days 39    
Moisture  
Dew Point 12 °F    
Average Humidity 59    
Maximum Humidity 95    
Minimum Humidity 34    
Precipitation  
Precipitation 0.00 in - - ()
Sea Level Pressure  
Sea Level Pressure 30.25 in    
Wind  
Wind Speed 6 mph (WNW)    
Max Wind Speed 17 mph    
Max Gust Speed 24 mph    
Averages and records for this station are not official NWS values.
T = Trace of Precipitation, MM = Missing Value Source: NWS Daily Summary

Daily Weather History Graph

Daily Weather History Graph

Search for Another Location

Airport:

Trip Planner

Search our weather history database for the weather conditions in past years. The results will help you decide how hot, cold, wet, or windy it might be!

Date:

Astronomy

Jan. 21, 2013 Rise Set
Actual Time 6:48 AM CST 4:53 PM CST
Civil Twilight 6:20 AM CST 5:21 PM CST
Nautical Twilight 5:49 AM CST 5:52 PM CST
Astronomical Twilight 5:18 AM CST 6:23 PM CST
Moon 12:33 PM CST 2:16 AM CST
Length of Visible Light 11h 00m
Length of Day
10h 04m
Waxing Gibbous, 75% of the Moon is Illuminated
Jan 21
Waxing Gibbous
Jan 26
Full
Feb 3
Last Quarter
Feb 10
New
Feb 17
First Quarter

Hourly Weather History & Observations

Time (CST) Temp. Windchill Dew Point Humidity Pressure Visibility Wind Dir Wind Speed Gust Speed Precip Events Conditions
12:56 AM 18.1 °F - 16.2 °F 92% 30.20 in - Calm Calm - N/A   Clear
1:56 AM 17.1 °F - 15.1 °F 92% 30.21 in - Calm Calm - N/A   Clear
2:56 AM 16.2 °F - 15.1 °F 95% 30.20 in - Calm Calm - N/A   Clear
3:56 AM 16.2 °F - 14.0 °F 91% 30.20 in - Calm Calm - N/A   Clear
4:56 AM 16.2 °F - 15.1 °F 95% 30.21 in - Calm Calm - N/A   Clear
6:56 AM 23.0 °F - 17.1 °F 78% 30.25 in - Calm Calm - N/A   Clear
7:56 AM 25.2 °F 20.9 °F 18.1 °F 75% 30.26 in - West 3.5 mph - N/A   Clear
8:56 AM 29.1 °F 19.4 °F 18.1 °F 64% 30.28 in - WNW 11.5 mph - N/A   Clear
9:56 AM 31.1 °F 23.1 °F 15.1 °F 52% 30.29 in - NW 9.2 mph - N/A   Clear
10:56 AM 32.9 °F 24.1 °F 16.2 °F 50% 30.27 in - West 11.5 mph - N/A   Clear
11:56 AM 34.9 °F 24.9 °F 15.1 °F 44% 30.23 in - West 16.1 mph 21.9 mph N/A   Clear
12:56 PM 36.9 °F 28.2 °F 15.1 °F 41% 30.20 in - WSW 13.8 mph 20.7 mph N/A   Clear
1:56 PM 36.0 °F 26.0 °F 10.0 °F 34% 30.22 in - West 17.3 mph 24.2 mph N/A   Clear
2:56 PM 34.9 °F 26.2 °F 11.1 °F 37% 30.22 in - West 12.7 mph 23.0 mph N/A   Clear
3:56 PM 32.0 °F 20.8 °F 8.1 °F 37% 30.24 in - WNW 17.3 mph - N/A   Clear
4:56 PM 29.1 °F 20.6 °F 9.1 °F 43% 30.25 in - WNW 9.2 mph - N/A   Clear
5:56 PM 27.1 °F 19.7 °F 8.1 °F 45% 30.26 in - NW 6.9 mph - N/A   Clear
6:56 PM 25.2 °F 15.1 °F 8.1 °F 48% 30.28 in - NW 10.4 mph - N/A   Clear
7:56 PM 25.2 °F 12.9 °F 6.1 °F 44% 30.30 in - WNW 15.0 mph - N/A   Clear
8:56 PM 22.1 °F 12.0 °F 5.0 °F 48% 30.32 in - NW 9.2 mph - N/A   Clear
9:56 PM 22.1 °F 11.3 °F 5.0 °F 48% 30.32 in - NW 10.4 mph - N/A   Mostly Cloudy
10:56 PM 21.0 °F 8.6 °F 6.1 °F 53% 30.32 in - WNW 12.7 mph - N/A   Mostly Cloudy
11:56 PM 21.0 °F 9.3 °F 5.0 °F 50% 30.32 in - NW 11.5 mph - N/A   Overcast